When you browse on this site, cookies collect data to enhance your experience and personalize the content and advertising you see.
Visit our Privacy Policy to learn more. By continuing to use the site, you agree to this use of cookies and data.
  • In Denmark
  • List of Countries
  • For 7 days
  • Water Temperature
  • Satellite Maps
  • Weather Map
  • Weather Widgets
  • user-avatar
    Login

    Hourly Weather Irbid

    Today, 17 July, Wednesday

    Time Temperature Precipitation Wind Pressure Humidity
    00:00 +22°C° 0 mm 1 mps 706 mmHg 52%
    01:00 +22°C° 0 mm 1 mps 706 mmHg 50%
    02:00 +22°C° 0 mm 1 mps 705 mmHg 50%
    03:00 +22°C° 0 mm 1 mps 705 mmHg 47%
    04:00 +23°C° 0 mm 2 mps 705 mmHg 45%
    05:00 +23°C° 0 mm 2 mps 705 mmHg 42%
    06:00 +26°C° 0 mm 2 mps 706 mmHg 36%
    07:00 +29°C° 0 mm 2 mps 706 mmHg 29%
    08:00 +34°C° 0 mm 3 mps 706 mmHg 21%
    09:00 +36°C° 0 mm 4 mps 706 mmHg 19%
    10:00 +39°C° 0 mm 6 mps 707 mmHg 18%
    11:00 +43°C° 0 mm 7 mps 707 mmHg 16%
    12:00 +43°C° 0 mm 9 mps 706 mmHg 16%
    13:00 +43°C° 0 mm 10 mps 706 mmHg 16%
    14:00 +43°C° 0 mm 12 mps 706 mmHg 16%
    15:00 +41°C° 0 mm 11 mps 706 mmHg 20%
    16:00 +38°C° 0 mm 9 mps 706 mmHg 24%
    17:00 +35°C° 0 mm 8 mps 706 mmHg 28%
    18:00 +33°C° 0 mm 6 mps 706 mmHg 38%
    19:00 +29°C° 0 mm 4 mps 706 mmHg 48%
    20:00 +26°C° 0 mm 2 mps 706 mmHg 58%
    21:00 +25°C° 0 mm 2 mps 706 mmHg 64%
    22:00 +24°C° 0 mm 2 mps 706 mmHg 69%
    23:00 +23°C° 0 mm 1 mps 706 mmHg 74%

    Tomorrow, 18 July, Thursday

    Time Temperature Precipitation Wind Pressure Humidity
    00:00 +23°C° 0 mm 2 mps 706 mmHg 72%
    01:00 +23°C° 0 mm 2 mps 706 mmHg 71%
    02:00 +23°C° 0 mm 2 mps 706 mmHg 69%
    03:00 +23°C° 0 mm 2 mps 706 mmHg 73%
    04:00 +21°C° 0 mm 2 mps 706 mmHg 76%
    05:00 +22°C° 0 mm 1 mps 706 mmHg 80%
    06:00 +24°C° 0 mm 2 mps 706 mmHg 67%
    07:00 +27°C° 0 mm 3 mps 707 mmHg 54%
    08:00 +29°C° 0 mm 5 mps 707 mmHg 41%
    09:00 +32°C° 0 mm 6 mps 708 mmHg 37%
    10:00 +33°C° 0 mm 7 mps 708 mmHg 33%
    11:00 +35°C° 0 mm 8 mps 708 mmHg 29%
    12:00 +35°C° 0 mm 9 mps 708 mmHg 29%
    13:00 +35°C° 0 mm 9 mps 708 mmHg 30%
    14:00 +36°C° 0 mm 10 mps 708 mmHg 30%
    15:00 +33°C° 0 mm 9 mps 708 mmHg 33%
    16:00 +32°C° 0 mm 9 mps 708 mmHg 35%
    17:00 +31°C° 0 mm 8 mps 708 mmHg 38%
    18:00 +27°C° 0 mm 6 mps 708 mmHg 51%
    19:00 +23°C° 0 mm 4 mps 708 mmHg 63%
    20:00 +21°C° 0 mm 2 mps 708 mmHg 76%
    21:00 +20°C° 0 mm 2 mps 708 mmHg 76%
    22:00 +20°C° 0 mm 2 mps 708 mmHg 77%
    23:00 +19°C° 0 mm 2 mps 708 mmHg 78%

    Day after tomorrow, 19 July, Friday

    Time Temperature Precipitation Wind Pressure Humidity
    00:00 +19°C° 0 mm 2 mps 708 mmHg 82%
    01:00 +19°C° 0 mm 2 mps 708 mmHg 85%
    02:00 +19°C° 0 mm 2 mps 708 mmHg 89%
    03:00 +19°C° 0 mm 2 mps 708 mmHg 91%
    04:00 +19°C° 0 mm 2 mps 708 mmHg 92%
    05:00 +19°C° 0 mm 2 mps 708 mmHg 94%
    06:00 +21°C° 0 mm 2 mps 709 mmHg 85%
    07:00 +22°C° 0 mm 3 mps 709 mmHg 77%
    08:00 +25°C° 0 mm 3 mps 709 mmHg 68%
    09:00 +27°C° 0 mm 4 mps 710 mmHg 59%
    10:00 +29°C° 0 mm 4 mps 710 mmHg 49%
    11:00 +32°C° 0 mm 4 mps 710 mmHg 40%
    12:00 +33°C° 0 mm 6 mps 710 mmHg 37%
    13:00 +34°C° 0 mm 7 mps 709 mmHg 35%
    14:00 +35°C° 0 mm 8 mps 709 mmHg 32%
    15:00 +33°C° 0 mm 8 mps 709 mmHg 37%
    16:00 +32°C° 0 mm 7 mps 709 mmHg 42%
    17:00 +29°C° 0 mm 7 mps 708 mmHg 47%
    18:00 +27°C° 0 mm 6 mps 708 mmHg 56%
    19:00 +25°C° 0 mm 4 mps 708 mmHg 66%
    20:00 +21°C° 0 mm 3 mps 708 mmHg 75%
    21:00 +20°C° 0 mm 2 mps 708 mmHg 78%
    22:00 +20°C° 0 mm 2 mps 708 mmHg 80%
    23:00 +20°C° 0 mm 1 mps 708 mmHg 83%

    20 July, Saturday

    Time Temperature Precipitation Wind Pressure Humidity
    00:00 +20°C° 0 mm 1 mps 708 mmHg 84%
    01:00 +19°C° 0 mm 1 mps 708 mmHg 85%
    02:00 +19°C° 0 mm 1 mps 707 mmHg 86%
    03:00 +19°C° 0 mm 1 mps 707 mmHg 88%
    04:00 +19°C° 0 mm 1 mps 707 mmHg 89%
    05:00 +19°C° 0 mm 1 mps 707 mmHg 91%
    06:00 +20°C° 0 mm 2 mps 708 mmHg 82%
    07:00 +23°C° 0 mm 2 mps 709 mmHg 73%
    08:00 +25°C° 0 mm 3 mps 709 mmHg 64%
    09:00 +27°C° 0 mm 4 mps 709 mmHg 55%
    10:00 +29°C° 0 mm 4 mps 709 mmHg 47%
    11:00 +32°C° 0 mm 5 mps 709 mmHg 39%
    12:00 +33°C° 0 mm 6 mps 709 mmHg 37%
    13:00 +34°C° 0 mm 7 mps 709 mmHg 35%
    14:00 +35°C° 0 mm 8 mps 709 mmHg 32%
    15:00 +34°C° 0 mm 8 mps 709 mmHg 36%
    16:00 +32°C° 0 mm 7 mps 708 mmHg 40%
    17:00 +30°C° 0 mm 7 mps 708 mmHg 44%
    18:00 +27°C° 0 mm 5 mps 708 mmHg 55%
    19:00 +25°C° 0 mm 4 mps 708 mmHg 65%
    20:00 +21°C° 0 mm 2 mps 708 mmHg 76%
    21:00 +21°C° 0 mm 2 mps 708 mmHg 79%
    22:00 +20°C° 0 mm 2 mps 708 mmHg 82%
    23:00 +19°C° 0 mm 2 mps 708 mmHg 85%

    21 July, Sunday

    Time Temperature Precipitation Wind Pressure Humidity
    00:00 +19°C° 0 mm 2 mps 708 mmHg 87%
    01:00 +19°C° 0 mm 2 mps 707 mmHg 88%
    02:00 +19°C° 0 mm 1 mps 707 mmHg 90%
    03:00 +19°C° 0 mm 1 mps 707 mmHg 89%
    04:00 +19°C° 0 mm 1 mps 707 mmHg 89%
    05:00 +19°C° 0 mm 1 mps 707 mmHg 89%
    06:00 +21°C° 0 mm 1 mps 708 mmHg 79%
    07:00 +23°C° 0 mm 2 mps 708 mmHg 69%
    08:00 +26°C° 0 mm 2 mps 708 mmHg 59%
    09:00 +28°C° 0 mm 2 mps 709 mmHg 51%
    10:00 +30°C° 0 mm 3 mps 709 mmHg 44%
    11:00 +33°C° 0 mm 3 mps 709 mmHg 36%
    12:00 +35°C° 0 mm 4 mps 709 mmHg 32%
    13:00 +36°C° 0 mm 5 mps 709 mmHg 29%
    14:00 +38°C° 0 mm 6 mps 708 mmHg 26%
    15:00 +36°C° 0 mm 6 mps 708 mmHg 31%
    16:00 +34°C° 0 mm 6 mps 707 mmHg 37%
    17:00 +33°C° 0 mm 5 mps 707 mmHg 43%
    18:00 +29°C° 0 mm 4 mps 707 mmHg 53%
    19:00 +27°C° 0 mm 3 mps 707 mmHg 62%
    20:00 +24°C° 0 mm 2 mps 707 mmHg 72%
    21:00 +24°C° 0 mm 2 mps 707 mmHg 74%
    22:00 +23°C° 0 mm 2 mps 707 mmHg 76%
    23:00 +23°C° 0 mm 2 mps 707 mmHg 78%

    22 July, Monday

    Time Temperature Precipitation Wind Pressure Humidity
    00:00 +22°C° 0 mm 1 mps 706 mmHg 81%
    01:00 +21°C° 0 mm 1 mps 706 mmHg 84%
    02:00 +20°C° 0 mm 1 mps 706 mmHg 87%
    03:00 +20°C° 0 mm 1 mps 706 mmHg 88%
    04:00 +20°C° 0 mm 1 mps 706 mmHg 89%
    05:00 +20°C° 0 mm 1 mps 706 mmHg 90%
    06:00 +22°C° 0 mm 1 mps 706 mmHg 79%
    07:00 +25°C° 0 mm 2 mps 707 mmHg 68%
    08:00 +27°C° 0 mm 2 mps 707 mmHg 56%
    09:00 +30°C° 0 mm 2 mps 708 mmHg 47%
    10:00 +32°C° 0 mm 2 mps 708 mmHg 38%
    11:00 +36°C° 0 mm 2 mps 708 mmHg 29%
    12:00 +37°C° 0 mm 4 mps 708 mmHg 27%
    13:00 +39°C° 0 mm 5 mps 707 mmHg 26%
    14:00 +40°C° 0 mm 6 mps 707 mmHg 24%
    15:00 +39°C° 0 mm 6 mps 706 mmHg 29%
    16:00 +36°C° 0 mm 6 mps 706 mmHg 33%
    17:00 +35°C° 0 mm 6 mps 706 mmHg 38%
    18:00 +32°C° 0 mm 5 mps 706 mmHg 46%
    19:00 +28°C° 0 mm 4 mps 706 mmHg 54%
    20:00 +26°C° 0 mm 3 mps 706 mmHg 62%
    21:00 +25°C° 0 mm 3 mps 706 mmHg 69%
    22:00 +24°C° 0 mm 3 mps 706 mmHg 75%
    23:00 +22°C° 0 mm 3 mps 706 mmHg 82%
    Show more